{"data":{"norad_id":59470,"epoch":"2026-05-25T04:28:02.902080Z","epoch_age_seconds":62176,"freshness":"FRESH","line1":"1 59470U 24068R   26145.18614470 -.00000568  00000+0 -11129-4 0  9992","line2":"2 59470  43.0008 318.8940 0001166 272.5318  87.5400 15.27583326120264","mean_motion":15.27583326,"eccentricity":0.0001166,"inclination_deg":43.0008,"raan_deg":318.894,"arg_perigee_deg":272.5318,"mean_anomaly_deg":87.54,"bstar":-1.1129e-5,"rev_number":12026,"period_min":94.266543467102,"perigee_km":482.23912367965,"apogee_km":483.83914995475,"semimajor_km":6861.1761368172,"source":"CELESTRAK","updated_at":"2026-05-25T13:38:18.950901Z"}}